Location: Christian Reformed Church
(43.0975°N, 93.8113°W)
Time: 07:22:10
(UTC+00:00)

Cosmos 1076 Rocket - Visible Passes

Search period start: 11 March 2026 00:00
Search period end: 21 March 2026 00:00
Orbit: 580 x 604 km, 82.5° (Epoch: 10 March)

Date Brightness Start Highest point End Pass type
(mag) Time Alt. Az. Time Alt. Az. Time Alt. Az.
11 Mar 3.4 01:28:05 10° S 01:32:11 57° E 01:36:18 10° NNE visible
11 Mar 6.7 03:08:02 10° W 03:09:53 13° WNW 03:11:43 10° NW visible
11 Mar 6.7 11:33:17 10° NNE 11:35:45 15° ENE 11:38:13 10° ESE visible
12 Mar 3.3 01:36:47 10° S 01:40:57 89° ESE 01:45:11 10° N visible
12 Mar 6.4 11:41:26 10° NNE 11:44:45 22° ENE 11:48:03 10° ESE visible
13 Mar 4.0 01:45:40 10° SSW 01:49:48 59° W 01:53:57 10° N visible
13 Mar 5.6 11:49:51 10° NNE 11:53:41 32° ENE 11:57:30 10° SE visible
14 Mar 5.0 01:54:45 10° SW 01:58:40 38° WNW 02:02:36 10° N visible
14 Mar 4.7 11:58:26 10° N 12:02:35 48° ENE 12:06:42 10° SSE visible
15 Mar 5.8 02:04:04 10° SW 02:07:34 26° WNW 02:11:07 10° NNW visible
16 Mar 6.4 02:13:41 10° WSW 02:16:33 18° WNW 02:19:25 10° NNW visible
16 Mar 7.1 10:41:29 10° NE 10:42:25 11° ENE 10:43:21 10° E visible
17 Mar 7.0 02:23:53 10° W 02:25:33 12° WNW 02:27:12 10° NW visible
17 Mar 6.8 10:48:49 10° NNE 10:51:27 16° ENE 10:54:03 10° ESE visible
18 Mar 3.5 00:52:25 10° S 00:56:37 88° WNW 01:00:50 10° N visible
18 Mar 6.2 10:57:00 10° NNE 11:00:25 23° ENE 11:03:50 10° SE visible
19 Mar 4.3 01:01:19 10° SSW 01:05:26 56° W 01:09:35 10° N visible
19 Mar 5.4 11:05:27 10° N 11:09:21 33° ENE 11:13:14 10° SE visible
20 Mar 5.3 01:10:26 10° SW 01:14:18 36° WNW 01:18:13 10° N visible
20 Mar 4.5 11:14:03 10° N 11:18:13 50° ENE 11:22:24 10° SSE visible
